Raleigh International Airport Airport (RDU)

 

Airport Diagram
Current Weather/Forecast (VFR Conditions)
METAR KRDU 021751Z 23014KT 10SM FEW042 FEW110 SCT250 28/17 A3010 RMK AO2 SLP189 T02780172 10278 20178 58028
TAF KRDU 021725Z 0218/0318 23012G20KT P6SM SCT040 SCT150 FM030000 23008KT P6SM FEW050 FM031600 25012G20KT P6SM SKC

All Charts
General
Chart Name Download
AIRPORT DIAGRAM
TAKEOFF MINIMUMS
DIVERSE VECTOR AREA
ALTERNATE MINIMUMS
HOT SPOT

Departures
Chart Name Download
BEXGO THREE (RNAV)
BLUE DEVIL SEVEN
FAYETTEVILLE FOUR
HOOKZ THREE (RNAV)
HURIC THREE (RNAV)
LWOOD THREE (RNAV)
OXFRD THREE (RNAV)
PACKK EIGHT
RALEIGH NINE
RALEIGH NINE, CONT.1
ROZBO THREE (RNAV)
SHPRD THREE (RNAV)
TAR HEEL ONE

Arrivals
Chart Name Download
ALDAN TWO (RNAV)
ALDAN TWO (RNAV), CONT.1
ARGAL SIX
BLOGS TWO (RNAV)
BRADE SIX
BUZZY NINE
KAROO TWO (RNAV)
KAROO TWO (RNAV), CONT.1
MALNR FOUR (RNAV)
MALNR FOUR (RNAV), CONT.1
SOUTH BOSTON SEVEN

Approaches
Chart Name Download
ILS OR LOC RWY 05L
ILS OR LOC RWY 05R
ILS OR LOC RWY 23L
ILS OR LOC RWY 23R
ILS RWY 05R (SA CAT I - II)
ILS RWY 23R (CAT II - III)
RNAV (RNP) Z RWY 05L
RNAV (RNP) Z RWY 05R
RNAV (RNP) Z RWY 23L
RNAV (RNP) Z RWY 23R
RNAV (GPS) RWY 32
RNAV (GPS) Y RWY 05L
RNAV (GPS) Y RWY 05R
RNAV (GPS) Y RWY 23L
RNAV (GPS) Y RWY 23R
VOR RWY 05R
VOR RWY 23L
VOR RWY 32


Inbound Traffic (Arrivals)

No inbound traffic.


Outbound Traffic (Departures)

No outbound traffic.